Content
SEND FEEDBACK

Daily
Averages
Monthly
Summary
United Kingdom

BOVINGDON, ENGLAND


Home > Europe > United Kingdom > England
Elevation: 535 feet     Latitude: 51 43N     Longitude: 000 32W

WEATHER
 
SELECT A DAY
Number of Records: 289,164;   Date Range: 7/1/96 - 7/20/14
 
SHARE

PRINT THIS DATA

[ ← Previous Day ]
WEATHER ALMANAC - JUNE 17, 2014
[ Next Day → ]
[ °C ]   °F
Weather ElementAverageHighLow
Temperature58.1 °F66.2 °F (3:20 pm)51.8 °F (1:50 am)
Dewpoint49.4 °F53.6 °F (7:20 pm)44.6 °F (2:50 pm)
Humidity74.3 %94 % (6:50 am)46 % (3:20 pm)
Barometer30.34 in30.36 in (5:20 am)30.33 in (12:50 am)
Wind Speed12.8 mph18.4 mph (2:50 pm)
Wind Gust24.2 mph (8:20 am)
Weather ElementAverage
Visibility6.2 mi
Wind DirectionESE (122 °)

Weather ElementTotal
Precipitation---
Heating Degree Days6 (Base 65)
Growing Degree Days9 (Base 50)
Averaged from 46 records on June 17, 2014
WEATHER CONDITIONS BREAKOUT
WIND DIRECTION BREAKOUT
WEATHER BY HOUR - JUNE 17, 2014
[ °C ]   °F
Local TimeTemperatureDewpointHumidityBarometerVisibilityWind DirectionWind SpeedGust SpeedPrecipitationEventsConditions
12:50 AM53.6 °F48.2 °F82 %30.33 in6.2 miNorth (360°)9.2 mphOvercast
1:20 AM53.6 °F48.2 °F82 %30.33 in6.2 miNorth (360°)9.2 mphOvercast
1:50 AM51.8 °F48.2 °F88 %30.33 in6.2 miNorth (360°)10.4 mphOvercast
2:20 AM53.6 °F48.2 °F82 %30.33 in6.2 miNorth (360°)9.2 mphOvercast
2:50 AM53.6 °F48.2 °F82 %30.33 in6.2 miNorth (360°)11.5 mphOvercast
3:20 AM53.6 °F50.0 °F88 %30.33 in6.2 miNorth (350°)11.5 mphOvercast
3:50 AM53.6 °F48.2 °F82 %30.33 in6.2 miNorth (350°)11.5 mphOvercast
4:20 AM53.6 °F48.2 °F82 %30.33 in6.2 miNorth (360°)10.4 mphMostly Cloudy
4:50 AM51.8 °F48.2 °F88 %30.33 in6.2 miNorth (350°)9.2 mphMostly Cloudy
5:20 AM51.8 °F48.2 °F88 %30.36 in6.2 miNorth (350°)10.4 mphMostly Cloudy
5:50 AM51.8 °F48.2 °F88 %30.36 in6.2 miNorth (350°)9.2 mphMostly Cloudy
6:20 AM51.8 °F48.2 °F88 %30.36 in6.2 miNorth (350°)11.5 mphMostly Cloudy
6:50 AM51.8 °F50.0 °F94 %30.36 in6.2 miNorth (350°)11.5 mphMostly Cloudy
7:20 AM53.6 °F50.0 °F88 %30.36 in6.2 miNorth (10°)10.4 mphMostly Cloudy
7:50 AM53.6 °F50.0 °F88 %30.36 in6.2 miNorth (10°)11.5 mphMostly Cloudy
8:20 AM55.4 °F50.0 °F82 %30.36 in6.2 miNNE (20°)11.5 mph24.2 mphMostly Cloudy
8:50 AM55.4 °F48.2 °F77 %30.36 in6.2 miNNE (30°)11.5 mphMostly Cloudy
9:20 AM55.4 °F50.0 °F82 %30.36 in6.2 miNNE (30°)11.5 mphMostly Cloudy
9:50 AM57.2 °F50.0 °F77 %30.36 in6.2 miNorth (10°)11.5 mphMostly Cloudy
10:20 AM59.0 °F48.2 °F67 %30.36 in6.2 miNNE (20°)15.0 mphScattered Clouds
10:50 AM59.0 °F48.2 °F67 %30.36 in6.2 miNorth (10°)15.0 mphScattered Clouds
11:20 AM59.0 °F50.0 °F72 %30.36 in6.2 miNorth (10°)13.8 mphScattered Clouds
11:50 AM62.6 °F50.0 °F63 %30.36 in6.2 miNorth (10°)15.0 mphScattered Clouds
12:20 PM62.6 °F48.2 °F59 %30.36 in6.2 miNorth (10°)15.0 mphScattered Clouds
12:50 PM64.4 °F50.0 °F59 %30.33 in6.2 miNNE (20°)15.0 mphPartly Cloudy
1:20 PM64.4 °F48.2 °F56 %30.33 in6.2 miNorth (10°)15.0 mphPartly Cloudy
1:50 PM64.4 °F48.2 °F56 %30.33 inNNE (20°)15.0 mphClear
2:20 PM64.4 °F46.4 °F52 %30.33 inNNE (20°)16.1 mphClear
2:50 PM64.4 °F44.6 °F49 %30.33 inNNE (20°)18.4 mphClear
3:20 PM66.2 °F44.6 °F46 %30.33 inNNE (30°)17.3 mphClear
3:50 PM64.4 °F48.2 °F56 %30.33 inNNE (20°)17.3 mphClear
4:20 PM64.4 °F46.4 °F52 %30.33 inNNE (30°)17.3 mphClear
4:50 PM64.4 °F48.2 °F56 %30.33 inNNE (30°)16.1 mphClear
5:20 PM64.4 °F48.2 °F56 %30.33 inNNE (30°)15.0 mphClear
5:50 PM62.6 °F50.0 °F63 %30.33 inNNE (20°)15.0 mphClear
6:20 PM62.6 °F51.8 °F68 %30.33 inNNE (30°)12.7 mphClear
6:50 PM62.6 °F51.8 °F68 %30.33 in6.2 miNNE (20°)11.5 mphPartly Cloudy
7:20 PM62.6 °F53.6 °F72 %30.33 in6.2 miNNE (20°)12.7 mphScattered Clouds
7:50 PM60.8 °F53.6 °F77 %30.33 in6.2 miNNE (30°)11.5 mphScattered Clouds
8:20 PM59.0 °F53.6 °F82 %30.33 in6.2 miNNE (20°)11.5 mphScattered Clouds
9:20 PM57.2 °F51.8 °F82 %30.33 in6.2 miNNE (20°)13.8 mphMostly Cloudy
9:50 PM57.2 °F53.6 °F88 %30.33 in6.2 miNNE (20°)11.5 mphMostly Cloudy
10:20 PM57.2 °F51.8 °F82 %30.33 in6.2 miNNE (20°)12.7 mphMostly Cloudy
10:50 PM55.4 °F51.8 °F88 %30.33 in6.2 miNNE (20°)13.8 mphMostly Cloudy
11:20 PM55.4 °F51.8 °F88 %30.33 in6.2 miNNE (20°)11.5 mphMostly Cloudy
11:50 PM55.4 °F51.8 °F88 %30.33 in6.2 miNorth (360°)11.5 mphMostly Cloudy
Hourly data recorded from EGGW, located miles away from Bovingdon, England







STORIES FROM OUR PARTNERS